Location: Góry Miechowskie
(50.3599°N, 20.1803°E)
Time: 08:20:14
(UTC+00:00)

Cosmos 1461 - Pass Details

Date: 13 September 2024
Orbit: 489 x 565 km, 65.0° (Epoch: 12 October)

Event Time Altitude Azimuth Distance (km) Brightness Sun altitude
Exits shadow 23:58:58 14° 35° (NE) 1,478 5.7 -33.4°
Drops below altitude 10° 23:59:30 10° 37° (NE) 1,689 6.1 -33.3°
Sets 00:01:40 0° 40° (NE) 2,579 7.3 -33.2°
